FW9268 Weather Reports


Display with metric or nautical units.
time (UTC)temp
F
wind
direction
speed
MPH
gust
MPH
rain 1hr
in
rain 24hr
in
rain mn
in
humidity
%
barometer
mb
20260903011603 69 218 0.0 0.0 0.00 0.27 0.27 89 1012.8
20260903011549 69 0 0.0 0.0 0.00 0.27 0.27 89 1022.2
20260903010047 71 218 0.0 0.0 0.00 0.27 0.27 86 1012.8
20260903004555 72 0 0.0 0.0 0.00 0.27 0.27 82 1021.9
20260903004548 72 218 0.0 0.0 0.00 0.27 0.27 83 1012.6
20260903003048 73 0 0.0 0.0 0.00 0.27 0.27 80 1021.9
20260903001600 75 0 0.0 1.0 0.00 0.27 0.27 77 1022.0
20260903001546 75 218 0.0 0.0 0.00 0.27 0.27 77 1012.7
20260903000052 76 218 0.0 0.0 0.00 0.27 0.27 76 1012.6
20260902234549 79 218 0.0 2.0 0.00 0.27 0.27 69 1021.6
20260902234544 79 218 1.0 2.0 0.00 0.27 0.27 68 1012.4
20260902233052 79 219 1.0 3.0 0.00 0.27 0.27 66 1012.4
20260902233044 79 219 1.0 4.0 0.00 0.27 0.27 67 1021.7
20260902231547 80 222 1.0 3.0 0.00 0.27 0.27 66 1012.5
20260902231543 80 222 1.0 4.0 0.00 0.27 0.27 65 1021.8
20260902230100 80 225 3.0 4.0 0.00 0.27 0.27 62 1012.4
20260902230051 80 225 2.0 4.0 0.00 0.27 0.27 61 1021.8
20260902224555 81 229 1.0 4.0 0.00 0.27 0.27 59 1021.6
20260902224547 81 229 2.0 4.0 0.00 0.27 0.27 59 1012.4
20260902223045 81 226 1.0 6.0 0.00 0.27 0.27 60 1021.8
20260902223043 81 226 1.0 6.0 0.00 0.27 0.27 61 1012.4
20260902221550 81 193 1.0 6.0 0.00 0.27 0.27 58 1021.8
20260902221542 81 190 2.0 6.0 0.00 0.27 0.27 60 1012.4
20260902220053 81 161 2.0 6.0 0.00 0.27 0.27 61 1012.5
20260902214559 81 230 2.0 6.0 0.00 0.27 0.27 60 1012.6
20260902213050 81 204 0.0 5.0 0.00 0.27 0.27 60 1022.0
20260902213041 81 204 0.0 5.0 0.00 0.27 0.27 61 1012.7
20260902211544 80 192 2.0 5.0 0.00 0.27 0.27 61 1022.1
20260902211540 80 196 2.0 5.0 0.00 0.27 0.27 61 1012.8
20260902210112 81 244 2.0 8.0 0.00 0.27 0.27 59 1022.2
20260902210040 81 265 2.0 8.0 0.00 0.27 0.27 60 1012.9
20260902204551 81 202 3.0 9.0 0.00 0.27 0.27 58 1022.1
20260902204539 81 202 3.0 9.0 0.00 0.27 0.27 58 1012.7
20260902203051 81 209 2.0 7.0 0.00 0.27 0.27 57 1022.1
20260902203039 81 208 2.0 7.0 0.00 0.27 0.27 57 1012.8
20260902201544 80 189 3.0 10.0 0.00 0.27 0.27 60 1022.1
20260902201541 80 189 3.0 6.0 0.00 0.27 0.27 61 1012.8
20260902200106 80 252 3.0 7.0 0.00 0.27 0.27 62 1022.5
20260902200035 80 254 4.0 6.0 0.00 0.27 0.27 62 1013.0
20260902194558 79 0 2.0 6.0 0.00 0.27 0.27 63 1022.5
20260902194534 79 211 1.0 6.0 0.00 0.27 0.27 63 1013.1
20260902193047 80 191 2.0 7.0 0.00 0.27 0.27 65 1022.5
20260902193033 80 197 4.0 7.0 0.00 0.27 0.27 65 1013.2
20260902191555 79 213 3.0 6.0 0.00 0.27 0.27 63 1022.6
20260902191539 79 213 3.0 6.0 0.00 0.27 0.27 64 1013.2
20260902190123 78 202 3.0 8.0 0.00 0.27 0.27 65 1022.4
20260902190029 78 202 3.0 8.0 0.00 0.27 0.27 65 1013.0
20260902184602 78 130 1.0 9.0 0.00 0.27 0.27 66 1022.7
20260902184532 78 111 2.0 8.0 0.00 0.27 0.27 66 1013.3
20260902183048 77 0 2.0 6.0 0.00 0.27 0.27 67 1022.9
20260902183027 77 199 2.0 6.0 0.00 0.27 0.27 68 1013.7
20260902181557 77 228 2.0 8.0 0.00 0.27 0.27 66 1023.0
20260902181527 77 228 3.0 8.0 0.00 0.27 0.27 66 1013.7
20260902180050 76 0 2.0 7.0 0.00 0.27 0.27 68 1023.0
20260902180031 76 182 1.0 6.0 0.00 0.27 0.27 69 1013.6
20260902174549 76 196 2.0 7.0 0.00 0.27 0.27 70 1023.2
20260902174521 76 198 3.0 7.0 0.00 0.27 0.27 70 1013.9
20260902173053 76 188 3.0 10.0 0.00 0.27 0.27 69 1023.4
20260902173022 76 188 2.0 9.0 0.00 0.27 0.27 69 1013.9
20260902171614 76 144 2.0 9.0 0.00 0.27 0.27 70 1023.4
20260902171515 76 140 3.0 11.0 0.00 0.27 0.27 72 1013.9
20260902170051 75 184 2.0 7.0 0.00 0.27 0.27 69 1023.1
20260902170011 75 183 2.0 7.0 0.00 0.27 0.27 70 1013.8
20260902164546 75 188 3.0 7.0 0.00 0.27 0.27 72 1023.1
20260902164510 75 188 2.0 7.0 0.00 0.27 0.27 73 1013.7
20260902163052 74 165 1.0 6.0 0.00 0.27 0.27 72 1023.2
20260902163006 74 165 2.0 6.0 0.00 0.27 0.27 72 1013.7
20260902161551 73 185 1.0 7.0 0.00 0.27 0.27 73 1023.4
20260902161503 73 185 1.0 5.0 0.00 0.27 0.27 74 1013.9
20260902160046 73 159 4.0 10.0 0.00 0.27 0.27 76 1023.4
20260902160003 73 158 4.0 9.0 0.00 0.27 0.27 77 1013.9
20260902154558 72 197 0.0 4.0 0.00 0.27 0.27 81 1013.9
20260902154543 72 197 0.0 4.0 0.00 0.27 0.27 80 1023.5
20260902153057 71 195 0.0 5.0 0.00 0.27 0.27 80 1013.9
20260902153043 71 0 0.0 5.0 0.00 0.27 0.27 79 1023.4
20260902151554 70 251 2.0 4.0 0.00 0.27 0.27 82 1013.7
20260902151549 70 251 1.0 4.0 0.00 0.27 0.27 82 1023.3
20260902150052 69 261 1.0 2.0 0.00 0.27 0.27 84 1013.2
20260902150049 69 261 1.0 3.0 0.00 0.27 0.27 83 1022.8
20260902144554 69 261 2.0 3.0 0.00 0.27 0.27 85 1013.2
20260902144542 69 261 1.0 3.0 0.00 0.27 0.27 86 1022.8
20260902143051 68 0 0.0 3.0 0.00 0.27 0.27 86 1022.9
20260902143045 68 256 0.0 0.0 0.00 0.27 0.27 86 1013.4
20260902141556 67 254 0.0 3.0 0.00 0.27 0.27 91 1013.6
20260902140054 66 0 0.0 2.0 0.00 0.27 0.27 90 1023.2
20260902140042 66 186 0.0 2.0 0.00 0.27 0.27 91 1013.7
20260902134549 65 185 0.0 2.0 0.00 0.27 0.27 92 1023.5
20260902134535 65 185 0.0 2.0 0.00 0.27 0.27 93 1014.1
20260902133041 64 184 2.0 5.0 0.00 0.27 0.27 92 1023.7
20260902131550 63 0 1.0 4.0 0.00 0.27 0.27 94 1023.7
20260902131529 63 180 1.0 3.0 0.00 0.27 0.27 95 1014.2
20260902130047 62 0 1.0 7.0 0.00 0.27 0.27 94 1023.8
20260902130026 62 181 1.0 7.0 0.00 0.27 0.27 95 1014.4
20260902124543 62 170 4.0 8.0 0.00 0.27 0.27 94 1024.4
20260902124526 62 170 3.0 8.0 0.00 0.27 0.27 95 1015.1
20260902123050 62 180 2.0 4.0 0.00 0.27 0.27 95 1024.4
20260902123020 62 180 2.0 4.0 0.00 0.27 0.27 96 1015.0
20260902121548 61 179 2.0 6.0 0.00 0.27 0.27 96 1024.3
20260902121518 61 179 2.0 5.0 0.00 0.27 0.27 96 1014.9
20260902120047 61 0 0.0 7.0 0.00 0.27 0.27 95 1023.5
20260902120021 61 163 0.0 7.0 0.00 0.27 0.27 96 1014.1
20260902114546 61 167 3.0 6.0 0.00 0.27 0.27 96 1023.1
20260902114513 61 167 3.0 6.0 0.00 0.27 0.27 97 1013.8
20260902113048 61 149 2.0 3.0 0.00 0.27 0.27 96 1022.8
20260902113012 61 148 2.0 3.0 0.00 0.27 0.27 97 1013.4
20260902111550 61 0 0.0 2.0 0.02 0.27 0.27 96 1022.1
20260902111512 61 78 0.0 2.0 0.02 0.27 0.27 97 1012.6
20260902110044 61 131 0.0 3.0 0.04 0.27 0.27 96 1021.9
20260902110011 61 131 0.0 3.0 0.04 0.27 0.27 97 1012.4
20260902104543 61 0 0.0 0.0 0.07 0.27 0.27 96 1022.8
20260902104516 61 222 0.0 0.0 0.07 0.27 0.27 97 1013.4
20260902103049 61 0 0.0 2.0 0.13 0.27 0.27 96 1023.1
20260902103008 61 222 0.0 0.0 0.13 0.27 0.27 96 1013.9
20260902101544 61 222 1.0 5.0 0.16 0.25 0.25 96 1023.5
20260902101509 61 222 1.0 5.0 0.16 0.25 0.25 96 1014.2
20260902100043 61 0 0.0 2.0 0.18 0.23 0.23 96 1022.5
20260902100007 61 350 0.0 2.0 0.18 0.23 0.23 96 1013.1
20260902094546 62 0 1.0 5.0 0.17 0.20 0.20 95 1022.5
20260902094506 62 51 1.0 5.0 0.17 0.20 0.20 96 1013.1
20260902093046 62 147 0.0 8.0 0.13 0.14 0.14 94 1024.8
20260902093007 62 147 0.0 8.0 0.12 0.13 0.13 95 1015.4
20260902091543 62 246 1.0 3.0 0.09 0.09 0.09 95 1025.3
20260902091504 62 246 1.0 3.0 0.08 0.08 0.08 96 1016.1
20260902090043 62 246 0.0 3.0 0.05 0.05 0.05 95 1025.5
20260902090005 62 246 0.0 3.0 0.05 0.05 0.05 96 1016.2
20260902084600 61 248 0.0 1.0 0.03 0.03 0.03 96 1015.9
20260902084550 61 248 0.0 2.0 0.03 0.03 0.03 96 1025.1
20260902083058 61 248 0.0 2.0 0.01 0.01 0.01 96 1014.9
20260902083043 61 0 0.0 2.0 0.01 0.01 0.01 96 1024.2
20260902081555 61 248 0.0 0.0 0.00 0.00 0.00 96 1014.7
20260902081552 61 0 0.0 0.0 0.00 0.00 0.00 96 1024.0
20260902080053 61 248 0.0 0.0 0.00 0.00 0.00 96 1014.5
20260902080041 61 0 0.0 0.0 0.00 0.00 0.00 96 1023.7
20260902074606 60 0 0.0 0.0 0.00 0.00 0.00 95 1023.3
20260902074552 60 248 0.0 0.0 0.00 0.00 0.00 96 1014.0
20260902073055 60 248 0.0 0.0 0.00 0.00 0.00 96 1013.9
20260902073047 60 0 0.0 1.0 0.00 0.00 0.00 95 1023.1
20260902071552 61 248 0.0 0.0 0.00 0.00 0.00 96 1013.5
20260902071542 61 0 0.0 0.0 0.00 0.00 0.00 96 1022.8
20260902070052 61 248 0.0 0.0 0.00 0.00 0.00 96 1013.6
20260902070044 61 0 0.0 0.0 0.00 0.00 0.00 95 1022.9
20260902064548 61 248 0.0 0.0 0.00 0.00 0.00 96 1013.5
20260902064546 61 0 0.0 0.0 0.00 0.00 0.00 95 1022.8
20260902063101 61 0 0.0 0.0 0.00 0.00 0.00 96 1022.9
20260902063056 61 248 0.0 0.0 0.00 0.00 0.00 96 1013.7
20260902061606 61 248 0.0 0.0 0.00 0.00 0.00 96 1014.0
20260902061545 61 0 0.0 0.0 0.00 0.00 0.00 95 1023.3
20260902060056 61 0 0.0 0.0 0.00 0.00 0.00 95 1023.4
20260902060043 61 248 0.0 0.0 0.00 0.00 0.00 95 1014.0
20260902054545 62 0 0.0 0.0 0.00 0.00 0.00 94 1023.5
20260902053049 62 0 0.0 0.0 0.00 0.00 0.00 94 1023.2
20260902053040 62 248 0.0 0.0 0.00 0.00 0.00 95 1013.9
20260902051550 62 0 0.0 0.0 0.00 0.00 0.00 94 1023.4
20260902051538 62 248 0.0 0.0 0.00 0.00 0.00 94 1014.1
20260902050043 62 0 0.0 0.0 0.00 0.00 0.00 93 1023.4
20260902050039 62 248 0.0 0.0 0.00 0.00 0.00 94 1014.1
20260902044544 63 0 0.0 0.0 0.00 0.00 0.00 93 1023.2
20260902044535 63 248 0.0 0.0 0.00 0.00 0.00 93 1013.9
20260902043107 63 0 0.0 0.0 0.00 0.00 0.00 92 1023.4
20260902043040 63 248 0.0 0.0 0.00 0.00 0.00 93 1014.1
20260902041600 64 0 0.0 0.0 0.00 0.00 0.00 92 1023.4
20260902041547 64 248 0.0 0.0 0.00 0.00 0.00 92 1014.1
20260902040044 64 0 0.0 0.0 0.00 0.00 0.00 90 1023.3
20260902040033 64 248 0.0 0.0 0.00 0.00 0.00 91 1013.9
20260902034549 65 0 0.0 0.0 0.00 0.00 0.00 89 1023.3
20260902034533 65 248 0.0 0.0 0.00 0.00 0.00 90 1014.0
20260902033050 65 0 0.0 0.0 0.00 0.00 0.00 90 1023.3
20260902033034 65 248 0.0 0.0 0.00 0.00 0.00 90 1014.0
20260902031545 66 0 0.0 0.0 0.00 0.00 0.00 88 1023.3
20260902031532 66 248 0.0 0.0 0.00 0.00 0.00 88 1013.9
20260902030045 66 0 0.0 0.0 0.00 0.00 0.00 87 1023.3
20260902030031 66 248 0.0 0.0 0.00 0.00 0.00 87 1013.9
20260902024541 67 0 0.0 0.0 0.00 0.00 0.00 87 1023.3
20260902024531 67 248 0.0 0.0 0.00 0.00 0.00 87 1013.8
20260902023047 67 0 0.0 0.0 0.00 0.00 0.00 84 1023.2
20260902023031 67 248 0.0 0.0 0.00 0.00 0.00 85 1013.8
20260902021545 68 0 0.0 0.0 0.00 0.00 0.00 84 1022.9
20260902021531 68 248 0.0 0.0 0.00 0.00 0.00 84 1013.5
20260902020053 69 0 0.0 0.0 0.00 0.00 0.00 82 1022.7
20260902020045 69 248 0.0 1.0 0.00 0.00 0.00 82 1013.2
20260902014554 69 0 0.0 0.0 0.00 0.00 0.00 78 1022.6
20260902014530 69 248 0.0 0.0 0.00 0.00 0.00 78 1013.1
20260902013053 70 0 0.0 0.0 0.00 0.00 0.00 77 1022.6
20260902013034 70 248 0.0 0.0 0.00 0.00 0.00 77 1013.1